Fort Knox, KY

7:58 PM EST on December 08, 2016 (GMT -0500)
Godman Army Air Field

Weather History for KFTK - June, 2013

Change the Weather History Date:

Sunday, June 16, 2013

  Actual Average Record
Temperature  
Mean Temperature 75 °F -  
Max Temperature 84 °F 80 °F 93 °F (2016)
Min Temperature 66 °F 62 °F 55 °F (1999)
Cooling Degree Days 10    
Growing Degree Days 25 (Base 50)    
Moisture  
Dew Point 66 °F    
Average Humidity 80    
Maximum Humidity 100    
Minimum Humidity 56    
Precipitation  
Precipitation 0.49 in - - ()
Sea Level Pressure  
Sea Level Pressure 30.01 in    
Wind  
Wind Speed 6 mph (SW)    
Max Wind Speed 22 mph    
Max Gust Speed 38 mph    
Visibility 9 miles    
Events Rain , Thunderstorm    
Averages and records for this station are not official NWS values.
T = Trace of Precipitation, MM = Missing Value Source: NWS Daily Summary

Daily Weather History Graph

Daily Weather History Graph

Search for Another Location

Airport or City:

Trip Planner

Search our weather history database for the weather conditions in past years. The results will help you decide how hot, cold, wet, or windy it might be!

Date:

Astronomy

Jun. 16, 2013 Rise Set
Actual Time 6:21 AM EDT 9:08 PM EDT
Civil Twilight 5:49 AM EDT 9:39 PM EDT
Nautical Twilight 5:10 AM EDT 10:19 PM EDT
Astronomical Twilight 4:25 AM EDT 11:03 PM EDT
Moon 1:49 PM EDT (6/16) 1:19 AM EDT (6/16)
Length of Visible Light 15h 50m
Length of Day
14h 47m
Waxing Crescent, 49% of the Moon is Illuminated
Jun 16
Waxing Crescent
Jun 16
First Quarter
Jun 23
Full
Jun 30
Last Quarter
Jul 8
New

Hourly Weather History & Observations

Time (EDT) Temp. Heat Index Dew Point Humidity Pressure Visibility Wind Dir Wind Speed Gust Speed Precip Events Conditions
12:58 AM 69.1 °F - 63.7 °F 83% 30.01 in 10.0 mi SSW 4.6 mph - N/A   Clear
1:58 AM 70.0 °F - 64.2 °F 82% 30.01 in 10.0 mi SW 4.6 mph - N/A   Clear
2:58 AM 70.9 °F - 63.9 °F 78% 30.01 in 10.0 mi WSW 5.8 mph - N/A   Scattered Clouds
3:58 AM 70.3 °F - 64.0 °F 80% 30.00 in 10.0 mi West 5.8 mph - N/A   Overcast
4:58 AM 69.4 °F - 64.0 °F 83% 29.99 in 10.0 mi SW 5.8 mph - N/A   Scattered Clouds
5:58 AM 69.6 °F - 64.0 °F 82% 30.00 in 10.0 mi SW 3.5 mph - N/A   Mostly Cloudy
6:58 AM 68.9 °F - 64.6 °F 86% 30.02 in 10.0 mi South 2.3 mph - N/A   Clear
7:58 AM 68.7 °F - 66.0 °F 91% 30.05 in 10.0 mi WNW 2.3 mph - N/A   Partly Cloudy
8:17 AM 69.8 °F - 66.2 °F 88% 30.05 in 10.0 mi SE 3.5 mph - N/A Rain Light Rain Showers
8:55 AM 71.2 °F - 66.2 °F 84% 30.05 in 10.0 mi West 2.3 mph - 0.00 in Rain Light Rain
9:45 AM 73.4 °F - 66.2 °F 78% 30.06 in 10.0 mi Variable 4.6 mph - N/A   Overcast
9:55 AM 74.3 °F - 66.7 °F 77% 30.05 in 10.0 mi South 5.8 mph - 0.00 in   Overcast
10:55 AM 77.5 °F - 66.7 °F 69% 30.04 in 10.0 mi SSE 6.9 mph - N/A   Overcast
11:55 AM 80.4 °F 83.1 °F 68.0 °F 66% 30.01 in 10.0 mi South 8.1 mph - N/A   Mostly Cloudy
12:55 PM 81.3 °F 84.0 °F 67.8 °F 63% 30.01 in 10.0 mi South 9.2 mph - N/A   Mostly Cloudy
1:58 PM 82.2 °F 85.1 °F 68.2 °F 62% 30.01 in 10.0 mi SW 8.1 mph - N/A   Partly Cloudy
2:58 PM 84.2 °F 86.8 °F 66.9 °F 56% 29.99 in 10.0 mi SSW 12.7 mph - N/A   Scattered Clouds
3:58 PM 83.3 °F 85.9 °F 67.1 °F 58% 29.98 in 10.0 mi SW 8.1 mph - N/A   Overcast
4:58 PM 83.3 °F 86.2 °F 67.8 °F 59% 29.97 in 10.0 mi Variable 4.6 mph - N/A   Overcast
5:20 PM 80.6 °F 83.2 °F 68.0 °F 65% 29.99 in 10.0 mi West 8.1 mph - N/A Thunderstorm Thunderstorm
5:35 PM 75.2 °F - 64.4 °F 69% 30.01 in 6.0 mi NW 21.9 mph 38.0 mph N/A Rain , Thunderstorm Light Thunderstorms and Rain
5:38 PM 73.4 °F - 64.4 °F 73% 30.03 in 1.0 mi WNW 19.6 mph 38.0 mph N/A Rain , Thunderstorm Thunderstorms and Rain
5:46 PM 69.8 °F - 66.2 °F 88% 30.04 in 0.5 mi West 20.7 mph 31.1 mph N/A Rain , Thunderstorm Heavy Thunderstorms and Rain
5:51 PM 68.0 °F - 64.4 °F 88% 30.01 in 3.0 mi NW 9.2 mph 31.1 mph N/A Rain , Thunderstorm Light Thunderstorms and Rain
5:58 PM 68.2 °F - 63.3 °F 84% 30.01 in 6.0 mi WNW 6.9 mph 31.1 mph 0.48 in Rain , Thunderstorm Light Thunderstorms and Rain
6:15 PM 66.2 °F - 64.4 °F 94% 30.00 in 9.0 mi West 3.5 mph - N/A Rain Light Rain
6:58 PM 68.0 °F - 66.2 °F 94% 29.97 in 10.0 mi SSW 8.1 mph - N/A Rain Light Rain
7:32 PM 68.0 °F - 68.0 °F 100% 29.97 in 10.0 mi Variable 1.2 mph - N/A   Overcast
7:58 PM 69.3 °F - 66.9 °F 92% 29.96 in 10.0 mi Calm Calm - 0.01 in   Overcast
8:58 PM 69.4 °F - 67.5 °F 93% 29.98 in 10.0 mi ENE 3.5 mph - N/A   Scattered Clouds
9:58 PM 68.5 °F - 67.1 °F 95% 29.99 in 10.0 mi ESE 4.6 mph - N/A   Overcast
10:58 PM 68.0 °F - 66.9 °F 96% 29.99 in 10.0 mi East 2.3 mph - N/A   Clear
11:58 PM 67.5 °F - 66.6 °F 97% 29.98 in 10.0 mi East 4.6 mph - N/A   Clear